Weather reports worldwide

Advertisment
Bale-Mulhouse, France (7299): temperature & dewpoint: 19.09.2018 08:00:00 - 25.09.2018 08:00:00 (CEST)Bale-Mulhouse, France (7299): temperature 5cm: 19.09.2018 08:00:00 - 25.09.2018 08:00:00 (CEST)Bale-Mulhouse, France (7299): temperature -20cm & temperature -100cm: 19.09.2018 08:00:00 - 25.09.2018 08:00:00 (CEST)Bale-Mulhouse, France (7299): wind speed & gusts: 19.09.2018 08:00:00 - 25.09.2018 08:00:00 (CEST)Bale-Mulhouse, France (7299): wind direction: 19.09.2018 08:00:00 - 25.09.2018 08:00:00 (CEST)Bale-Mulhouse, France (7299): reduced air pressure: 19.09.2018 08:00:00 - 25.09.2018 08:00:00 (CEST)Bale-Mulhouse, France (7299): visibility: 19.09.2018 08:00:00 - 25.09.2018 08:00:00 (CEST)Bale-Mulhouse, France (7299): precipitation: 19.09.2018 08:00:00 - 25.09.2018 08:00:00 (CEST)
Date & Time tt [°C] td [°C] tt 5cm [°C] tt -20cm [°C] tt -100cm [°C] ff [km/h] ff [kn] fx [km/h] fx [kn] dd ppp [hPa] vv [km] rr [mm]
25.09.2018 08:00:00 - - - - - - - - - - - - -
25.09.2018 07:00:00 2,6 2,3 0,2 16,5 20,2 5 3 8 5 SSW 1036,2 3,8 0,0
25.09.2018 06:00:00 3,8 3,5 0,5 16,8 20,2 7 4 10 5 W 1036,2 25 0,0
25.09.2018 05:00:00 3,1 2,7 1,0 17,0 20,2 8 4 11 6 WNW 1036,4 20 0,0
25.09.2018 04:00:00 3,4 2,7 0,7 17,2 20,2 5 3 7 4 W 1036,4 43 0,0
25.09.2018 03:00:00 3,1 2,4 1,0 17,3 20,2 6 3 8 4 W 1036,6 40 0,0
25.09.2018 02:00:00 4,0 2,8 2,0 17,5 20,2 6 4 9 5 WSW 1036,2 54 0,0
25.09.2018 01:00:00 5,3 3,6 3,3 17,7 20,3 11 6 18 10 NW 1036,0 55 0,0
25.09.2018 00:00:00 6,0 3,8 3,6 17,9 20,3 8 4 10 5 WSW 1035,9 50 0,0
24.09.2018 23:00:00 7,7 3,9 5,0 18,0 20,3 6 3 11 6 WNW 1035,4 60 0,0
24.09.2018 22:00:00 8,7 3,1 6,8 18,2 20,3 7 4 24 13 N 1034,9 60 0,0
24.09.2018 21:00:00 12,0 2,7 11,1 18,3 20,3 12 7 26 14 NNE 1034,1 60 0,0
24.09.2018 20:00:00 12,6 2,4 11,5 18,4 20,3 14 8 31 17 N 1033,7 60 0,0
24.09.2018 19:00:00 14,0 3,4 13,5 18,4 20,3 17 9 35 19 N 1033,0 50 0,0
24.09.2018 18:00:00 14,6 3,4 14,4 18,4 20,3 18 10 35 19 N 1032,4 50 0,0
24.09.2018 17:00:00 15,6 3,4 16,4 18,3 20,3 22 12 40 22 N 1032,2 38 0,0
24.09.2018 16:00:00 15,6 4,3 17,4 18,3 20,4 24 13 38 20 N 1032,2 50 0,0
24.09.2018 15:00:00 15,3 5,2 15,3 18,2 20,3 22 12 35 19 N 1032,3 50 0,0
24.09.2018 14:00:00 14,5 5,8 14,4 18,1 20,4 21 11 33 18 N 1032,8 50 0,0
24.09.2018 13:00:00 14,5 6,6 16,1 18,1 20,4 15 8 28 15 NNE 1033,1 50 0,0
24.09.2018 12:00:00 13,8 6,4 11,8 18,2 20,4 12 6 25 13 N 1033,6 35 0,0
24.09.2018 11:00:00 11,5 5,8 11,4 18,4 20,4 16 9 32 17 N 1033,9 30 0,0
24.09.2018 10:00:00 11,3 6,6 11,0 18,5 20,4 19 10 38 21 N 1033,2 30 0,0
24.09.2018 09:00:00 9,9 6,8 8,4 18,8 20,4 20 11 31 17 NNW 1032,3 18 0,0
24.09.2018 08:00:00 8,7 6,8 7,1 19,0 20,4 17 9 30 16 NNW 1031,5 18 0,0
24.09.2018 07:00:00 8,2 6,5 6,9 19,2 20,4 14 8 23 12 NW 1030,7 30 0,0
24.09.2018 06:00:00 8,9 6,7 7,9 19,4 20,4 15 8 28 15 N 1028,9 30 0,0
24.09.2018 05:00:00 9,6 7,7 8,7 19,6 20,4 16 9 35 19 NNW 1028,1 30 0,0
24.09.2018 04:00:00 10,7 9,0 10,0 19,8 20,4 16 8 27 15 N 1027,4 12 0,2
24.09.2018 03:00:00 11,8 9,2 11,5 19,9 20,4 11 6 24 13 NNW 1026,6 60 0,0
24.09.2018 02:00:00 12,6 10,1 12,1 20,1 20,4 13 7 21 11 NNW 1025,7 60 0,0
24.09.2018 01:00:00 13,0 10,0 11,4 20,3 20,4 9 5 15 8 W 1024,5 60 0,0
24.09.2018 00:00:00 13,2 10,6 12,2 20,5 20,4 8 5 40 21 NNW 1022,9 30 0,2
23.09.2018 23:00:00 14,4 11,2 12,7 20,7 20,4 22 12 42 23 NW 1021,0 15 0,2
23.09.2018 22:00:00 14,8 13,2 13,9 20,8 20,4 13 7 42 23 WNW 1019,3 7 4,8
23.09.2018 21:00:00 15,8 13,6 14,6 20,8 20,4 34 19 80 43 W 1016,4 1,8 4,1
23.09.2018 20:00:00 25,0 15,0 22,5 20,8 20,4 40 21 79 42 WSW 1011,1 40 0,0
23.09.2018 19:00:00 25,1 15,1 24,5 20,7 20,4 36 19 69 37 WSW 1010,5 40 0,0
23.09.2018 18:00:00 25,9 15,6 25,2 20,6 20,4 30 16 66 36 SW 1010,9 50 0,0
23.09.2018 17:00:00 25,9 15,9 25,2 20,4 20,4 36 19 67 36 WSW 1012,2 50 0,0
23.09.2018 16:00:00 24,9 16,3 25,4 20,2 20,4 35 19 54 29 W 1013,6 50 0,0
23.09.2018 15:00:00 25,7 16,3 27,2 19,9 20,4 31 17 56 30 W 1013,9 60 0,0
23.09.2018 14:00:00 26,6 16,2 27,2 19,7 20,4 33 18 58 31 WSW 1014,1 60 0,0
23.09.2018 13:00:00 25,8 16,1 27,2 19,5 20,5 35 19 60 33 W 1015,3 50 0,0
23.09.2018 12:00:00 25,6 16,2 23,3 19,4 20,5 30 16 53 29 WSW 1015,7 50 0,0
23.09.2018 11:00:00 22,2 15,3 21,8 19,3 20,5 24 13 46 25 WSW 1016,9 40 0,0
23.09.2018 10:00:00 21,7 15,3 20,6 19,3 20,5 18 10 37 20 WSW 1017,0 35 0,0
23.09.2018 09:00:00 19,7 15,1 16,9 19,3 20,5 6 3 24 13 S 1017,6 50 0,0
23.09.2018 08:00:00 17,0 12,9 15,3 19,4 20,5 9 5 22 12 S 1017,8 40 0,0
23.09.2018 07:00:00 15,8 12,0 14,9 19,5 20,5 12 6 26 14 S 1017,9 30 0,0
23.09.2018 06:00:00 15,5 11,9 14,6 19,5 20,5 9 5 14 8 SE 1018,5 50 0,0
23.09.2018 05:00:00 15,7 11,9 14,8 19,6 20,5 8 4 21 11 SSE 1018,8 50 0,0
23.09.2018 04:00:00 15,2 11,2 14,7 19,7 20,5 13 7 23 12 SSE 1019,1 56 0,0
23.09.2018 03:00:00 15,0 11,9 14,5 19,7 20,5 11 6 19 10 SSE 1020,1 51 0,0
23.09.2018 02:00:00 15,0 11,8 14,0 19,8 20,5 13 7 19 10 SSE 1020,6 45 0,0
23.09.2018 01:00:00 14,8 11,9 13,4 19,8 20,5 5 3 14 8 S 1021,1 46 0,0
23.09.2018 00:00:00 14,6 11,9 13,4 19,9 20,5 8 4 13 7 S 1021,2 30 0,0
22.09.2018 23:00:00 15,6 10,6 13,6 20,0 20,6 4 2 9 5 SSW 1021,7 30 0,4
22.09.2018 22:00:00 16,0 9,9 15,3 20,0 20,6 4 2 10 5 W 1021,5 30 0,0
22.09.2018 21:00:00 16,6 8,5 15,5 20,0 20,6 6 4 9 5 W 1021,0 30 0,0
22.09.2018 20:00:00 17,2 7,5 16,1 20,0 20,6 7 4 13 7 WNW 1020,5 30 0,0
22.09.2018 19:00:00 18,2 7,9 17,3 20,0 20,6 8 4 16 8 WNW 1020,3 35 0,0
22.09.2018 18:00:00 19,3 7,1 19,1 19,8 20,6 10 6 25 13 WNW 1020,6 35 0,0
22.09.2018 17:00:00 20,5 7,5 22,2 19,7 20,7 9 5 22 12 WNW 1020,7 35 0,0
22.09.2018 16:00:00 20,4 7,4 23,5 19,4 20,6 11 6 25 13 W 1021,4 35 0,0
22.09.2018 15:00:00 19,9 6,6 21,4 19,2 20,7 11 6 28 15 SW 1022,0 35 0,0
22.09.2018 14:00:00 19,2 7,3 20,2 19,0 20,6 7 4 22 12 ENE 1022,6 35 0,0
22.09.2018 13:00:00 17,3 7,3 20,2 18,9 20,7 7 4 18 10 SE 1023,5 35 0,0
22.09.2018 12:00:00 16,6 9,0 19,7 18,9 20,7 3 2 16 8 N 1024,5 35 0,0
22.09.2018 11:00:00 15,3 9,4 17,0 18,8 20,6 4 2 16 8 E 1024,8 35 0,0
22.09.2018 10:00:00 14,2 9,6 13,4 18,9 20,7 5 3 12 6 ENE 1025,3 35 0,0
22.09.2018 09:00:00 12,0 10,7 9,0 19,0 20,7 4 2 8 5 SW 1025,2 35 0,0
22.09.2018 08:00:00 9,6 9,1 8,2 19,1 20,7 0 0 7 4 N 1025,2 35 0,0
22.09.2018 07:00:00 9,9 9,0 7,8 19,3 20,7 4 2 9 5 ESE 1025,0 18 0,0
22.09.2018 06:00:00 10,6 8,9 8,4 19,4 20,7 5 3 9 5 ESE 1025,1 20 0,0
22.09.2018 05:00:00 11,4 9,5 10,0 19,6 20,7 0 0 11 6 N 1024,7 20 0,0
22.09.2018 04:00:00 11,0 9,3 8,9 19,7 20,7 5 3 18 10 SW 1025,2 44 0,0
22.09.2018 03:00:00 10,5 9,1 9,0 19,9 20,7 4 2 14 8 SW 1024,8 56 0,0
22.09.2018 02:00:00 10,7 9,1 9,8 20,1 20,7 9 5 17 9 N 1024,3 55 0,0
22.09.2018 01:00:00 11,7 9,6 9,7 20,2 20,7 11 6 22 12 N 1024,1 57 0,0
22.09.2018 00:00:00 11,5 9,1 9,6 20,4 20,7 3 2 18 10 S 1023,4 20 0,0
21.09.2018 23:00:00 12,0 9,6 10,6 20,6 20,7 10 5 24 13 SW 1023,1 20 0,0
21.09.2018 22:00:00 12,6 9,6 11,0 20,8 20,7 18 10 34 18 WSW 1022,1 20 0,0
21.09.2018 21:00:00 12,6 10,0 11,4 20,9 20,7 24 13 47 26 W 1021,5 18 0,0
21.09.2018 20:00:00 12,8 9,6 11,4 21,0 20,7 9 5 53 29 W 1021,1 13 0,4
21.09.2018 19:00:00 16,0 10,5 15,8 21,1 20,7 23 12 63 34 W 1018,2 20 0,0
21.09.2018 18:00:00 18,8 13,4 18,7 21,1 20,7 38 21 60 32 WNW 1015,4 25 0,0
21.09.2018 17:00:00 24,3 10,6 24,0 21,0 20,7 28 15 50 27 W 1012,9 25 0,0
21.09.2018 16:00:00 25,3 12,5 25,1 21,0 20,7 24 13 53 29 W 1011,6 25 0,0
21.09.2018 15:00:00 25,8 13,0 24,8 20,9 20,7 27 15 47 26 W 1011,8 25 0,0
21.09.2018 14:00:00 25,6 14,1 25,3 20,7 20,7 11 6 32 18 WNW 1011,7 25 0,0
21.09.2018 13:00:00 26,7 13,8 27,4 20,6 20,7 18 10 36 20 W 1011,7 25 0,0
21.09.2018 12:00:00 26,3 15,4 26,7 20,5 20,7 6 4 16 9 WNW 1012,2 25 0,0
21.09.2018 11:00:00 24,5 16,0 22,5 20,4 20,7 10 5 21 11 ESE 1012,9 20 0,0
21.09.2018 10:00:00 21,1 15,2 20,9 20,5 20,7 6 3 13 7 SSE 1013,1 20 0,0
21.09.2018 09:00:00 19,7 14,9 16,2 20,5 20,7 11 6 17 9 SSE 1013,0 20 0,0
21.09.2018 08:00:00 16,7 14,0 14,8 20,7 20,7 10 6 17 9 SSE 1013,5 20 0,0
21.09.2018 07:00:00 16,1 13,9 14,2 20,8 20,7 13 7 17 9 S 1013,3 15 0,0
21.09.2018 06:00:00 15,9 13,7 14,4 20,9 20,7 9 5 18 10 S 1013,7 15 0,0
21.09.2018 05:00:00 16,4 14,1 14,8 21,1 20,7 9 5 16 9 S 1014,1 20 0,0
21.09.2018 04:00:00 17,0 14,3 15,5 21,2 20,7 10 5 15 8 SSE 1014,3 15 0,0
21.09.2018 03:00:00 17,2 14,7 15,7 21,4 20,7 10 6 23 12 SSE 1014,6 13 0,0
21.09.2018 02:00:00 17,3 14,8 14,7 21,5 20,7 11 6 17 9 SE 1015,0 18 0,0
21.09.2018 01:00:00 17,3 14,8 14,1 21,6 20,7 8 4 11 6 S 1015,3 20 0,0
21.09.2018 00:00:00 16,9 14,4 14,3 21,7 20,7 4 2 10 5 SSE 1015,6 20 0,0
20.09.2018 23:00:00 17,3 14,4 14,9 21,9 20,7 3 2 8 5 SSW 1016,0 20 0,0
20.09.2018 22:00:00 18,8 15,1 15,6 21,9 20,7 7 4 9 5 SSE 1016,0 20 0,0
20.09.2018 21:00:00 18,9 15,2 16,2 22,0 20,7 5 3 8 5 WSW 1016,1 25 0,0
20.09.2018 20:00:00 21,8 15,2 18,6 22,0 20,7 5 3 13 7 SW 1015,6 30 0,0
20.09.2018 19:00:00 27,5 13,8 26,6 21,8 20,7 5 3 13 7 E 1014,9 45 0,0
20.09.2018 18:00:00 28,7 13,8 29,1 21,6 20,7 5 3 16 9 E 1015,1 35 0,0
20.09.2018 17:00:00 29,6 14,6 32,9 21,3 20,6 4 2 19 10 SSE 1015,6 45 0,0
20.09.2018 16:00:00 28,8 15,0 32,8 21,0 20,7 8 5 21 12 ESE 1016,3 35 0,0
20.09.2018 15:00:00 28,0 14,6 30,5 20,8 20,7 11 6 22 12 ESE 1017,1 35 0,0
20.09.2018 14:00:00 28,0 15,3 28,9 20,5 20,7 7 4 16 9 NE 1017,9 35 0,0
20.09.2018 13:00:00 26,9 15,6 28,9 20,3 20,7 8 5 16 9 NNE 1018,9 30 0,0
20.09.2018 12:00:00 25,6 15,9 26,9 20,2 20,7 5 3 18 10 ESE 1019,7 30 0,0
20.09.2018 11:00:00 23,2 16,0 23,8 20,2 20,7 8 5 18 10 SE 1020,3 30 0,0
20.09.2018 10:00:00 20,7 15,5 19,5 20,3 20,7 11 6 17 9 SE 1020,9 30 0,0
20.09.2018 09:00:00 18,2 15,1 15,7 20,4 20,7 11 6 16 9 SSE 1021,1 30 0,0
20.09.2018 08:00:00 16,1 13,9 13,5 20,5 20,7 8 5 15 8 S 1021,2 30 0,0
20.09.2018 07:00:00 14,8 13,2 13,5 20,6 20,7 7 4 14 7 SSW 1021,0 15 0,0
20.09.2018 06:00:00 15,5 13,7 14,3 20,8 20,7 9 5 14 8 S 1020,7 15 0,0
20.09.2018 05:00:00 16,0 13,8 14,0 20,9 20,7 9 5 16 9 S 1020,7 15 0,0
20.09.2018 04:00:00 15,5 13,9 14,0 21,1 20,7 8 4 14 8 S 1020,6 20 0,0
20.09.2018 03:00:00 15,8 14,3 14,1 21,2 20,7 8 4 13 7 S 1020,6 22 0,0
20.09.2018 02:00:00 17,0 14,5 13,9 21,3 20,6 9 5 13 7 S 1020,7 23 0,0
20.09.2018 01:00:00 16,8 14,3 14,4 21,5 20,7 6 3 11 6 SSW 1020,6 23 0,0
20.09.2018 00:00:00 18,0 14,5 15,1 21,6 20,7 8 4 21 11 S 1020,6 26 0,0
19.09.2018 23:00:00 17,1 14,9 15,0 21,7 20,7 6 3 9 5 S 1020,5 25 0,0
19.09.2018 22:00:00 18,0 15,3 15,7 21,8 20,7 4 2 5 3 S 1020,2 30 0,0
19.09.2018 21:00:00 19,7 15,8 17,0 21,8 20,7 3 2 7 4 SSW 1019,5 30 0,0
19.09.2018 20:00:00 21,7 15,8 19,1 21,8 20,7 6 3 9 5 SW 1019,0 33 0,0
19.09.2018 19:00:00 27,4 14,8 25,8 21,7 20,7 6 3 12 6 ESE 1018,2 30 0,0
19.09.2018 18:00:00 28,9 14,3 28,8 21,5 20,7 5 3 20 11 E 1017,8 30 0,0
19.09.2018 17:00:00 29,2 14,6 29,1 21,2 20,6 9 5 21 12 NE 1017,9 30 0,0
19.09.2018 16:00:00 29,4 14,4 30,4 20,9 20,7 3 2 21 11 SE 1018,2 30 0,0
19.09.2018 15:00:00 28,7 15,6 31,1 20,6 20,6 6 3 23 12 SE 1018,6 30 0,0
19.09.2018 14:00:00 27,6 16,2 30,1 20,3 20,7 9 5 17 9 ESE 1019,3 30 0,0
19.09.2018 13:00:00 26,5 15,8 28,5 20,1 20,6 8 4 16 8 ESE 1019,6 30 0,0
19.09.2018 12:00:00 25,0 15,6 25,4 20,0 20,7 7 4 18 10 ESE 1020,3 31 0,0
19.09.2018 11:00:00 22,5 15,3 22,4 20,0 20,7 13 7 22 12 SE 1020,7 30 0,0
19.09.2018 10:00:00 20,0 14,8 17,9 20,1 20,7 14 8 21 11 SE 1021,0 30 0,0
19.09.2018 09:00:00 17,6 14,7 14,8 20,2 20,6 10 6 16 8 SSE 1021,0 20 0,0
19.09.2018 08:00:00 15,2 13,7 13,4 20,4 20,6 10 5 16 9 S 1020,7 20 0,0

tt = temperature
td = dewpoint
tt 5cm = temperature 5cm
tt -20cm = temperature -20cm
tt -100cm = temperature -100cm
ff = wind speed
fx = gusts
dd = wind direction
ppp = reduced air pressure
vv = visibility
rr = precipitation

Next stations